NOAA 16 DEB, 41397

Orbit data source: Space-Track

NOAA 16 DEB, 41397 is space debris in SSO originally from a launch on Thu, 21 Sep 2000 UTC launched from the Air Force Western Test Range (AFWTR). Debris objects in space refer to the collection of defunct objects orbiting the Earth. Examples of debris include non-operational satellites, rocket bodies, and fragments generated from explosions, collisions, or faulty payload assembly.

Loading next visibility...
Identifier
41397, 2000-055KA
Orbit
SSO
Country
Flag of USUS
Related business
Manufacturer
Unknown
Mission
Spacecraft
Bus & Motor
Unknown
Mass
Unknown
Launch date (UTC)
2000-09-21 (25 years ago)
Launch vehicle
Unknown
Launch site
Air Force Western Test Range (AFWTR)
Object type
Payload
Rocket body
Debris
Shape & HBR
Unknown shape, 0.1 m
Radar Cross Section
Small (<0.1 m²)

Expand to show TLE details & history
Last TLE update: 17 hours ago

TLE from 17 hours ago
0 NOAA 16 DEB
1 41397U 00055KA  25286.90704284  .00011353  00000-0  30615-2 0  9991
2 41397  98.9336  91.1266 0031986 131.5299 228.8644 14.47757312499924
Epoch: 2025-10-13T21:46Z
TLE epoch observation values (Epoch: 2025-10-13T21:46:08.501Z)
Latitude
-0°
Longitude
101.88809°
Altitude
750.935 km
Speed
7.471 km/s
True Right ascension
06h 04m 30s
True Declination
0° 00' 00"
Sunlit
Object was in daylight at epoch
Visualization orbit readout
Latitude
Unknown
Longitude
Unknown
Altitude
Unknown
Speed
Unknown
Apparent Right ascension
Unknown
Apparent Declination
Unknown
Sunlit
N/A
Visualization observer readout
Local Sidereal Time
08:51:01
Azimuth
Unknown
Elevation
Unknown
Doppler factor
Unknown
Orbital elements
Apogee altitude
752.852 km
Perigee altitude
707.379 km
Semi-major axis
7,108.252 km
Eccentricity
0.0032
Inclination
98.9336°
RAAN
91.1266°
Arg. of periapsis
131.5299°
True anomaly
228.58907°
Mean anomaly
228.8644°
Eccentric anomaly
228.72666°
Mean motion
3.62159 °/min
Orbital period
99.4 mins
BSTAR
0.0030615
Loading maneuver chart data...
Computing Atmospheric mass density...
Loading historical data...
Loading historical data...
Loading historical data...
Loading historical data...
Loading historical data...
Loading historical data...
Loading historical data...

Documentation

Showing up to 5 results
|